Index of /20260422/WXO-DD/model_gdps/15km/00/225
Name Last modified Size Description
Parent Directory -
20260422T00Z_MSC_GDPS_AirTemp_AGL-120m_LatLon0.15_PT225H.grib2 2026-04-22 04:47 904K
20260422T00Z_MSC_GDPS_AirTemp_AGL-2m_LatLon0.15_PT225H.grib2 2026-04-22 04:47 1.0M
20260422T00Z_MSC_GDPS_AirTemp_AGL-40m_LatLon0.15_PT225H.grib2 2026-04-22 04:47 805K
20260422T00Z_MSC_GDPS_AirTemp_AGL-80m_LatLon0.15_PT225H.grib2 2026-04-22 04:47 913K
20260422T00Z_MSC_GDPS_AirTemp_IsbL-0001_LatLon0.15_PT225H.grib2 2026-04-22 04:47 709K
20260422T00Z_MSC_GDPS_AirTemp_IsbL-0005_LatLon0.15_PT225H.grib2 2026-04-22 04:47 686K
20260422T00Z_MSC_GDPS_AirTemp_IsbL-0500_LatLon0.15_PT225H.grib2 2026-04-22 04:47 1.0M
20260422T00Z_MSC_GDPS_AirTemp_IsbL-0700_LatLon0.15_PT225H.grib2 2026-04-22 04:47 952K
20260422T00Z_MSC_GDPS_AirTemp_IsbL-0850_LatLon0.15_PT225H.grib2 2026-04-22 04:47 1.1M
20260422T00Z_MSC_GDPS_AirTemp_IsbL-0925_LatLon0.15_PT225H.grib2 2026-04-22 04:47 1.1M
20260422T00Z_MSC_GDPS_AirTemp_IsbL-1000_LatLon0.15_PT225H.grib2 2026-04-22 04:47 1.1M
20260422T00Z_MSC_GDPS_Albedo_Sfc_LatLon0.15_PT225H.grib2 2026-04-22 04:47 245K
20260422T00Z_MSC_GDPS_ConvectivePrecip-Accum_Sfc_LatLon0.15_PT225H.grib2 2026-04-22 04:47 4.0M
20260422T00Z_MSC_GDPS_DewPointDepression_AGL-2m_LatLon0.15_PT225H.grib2 2026-04-22 04:47 756K
20260422T00Z_MSC_GDPS_DewPointDepression_IsbL-0500_LatLon0.15_PT225H.grib2 2026-04-22 04:47 1.0M
20260422T00Z_MSC_GDPS_DewPointDepression_IsbL-0700_LatLon0.15_PT225H.grib2 2026-04-22 04:47 1.1M
20260422T00Z_MSC_GDPS_DewPointDepression_IsbL-0850_LatLon0.15_PT225H.grib2 2026-04-22 04:47 1.2M
20260422T00Z_MSC_GDPS_DewPointDepression_IsbL-0925_LatLon0.15_PT225H.grib2 2026-04-22 04:47 1.0M
20260422T00Z_MSC_GDPS_DewPointDepression_IsbL-1000_LatLon0.15_PT225H.grib2 2026-04-22 04:47 967K
20260422T00Z_MSC_GDPS_DewPoint_AGL-2m_LatLon0.15_PT225H.grib2 2026-04-22 04:47 607K
20260422T00Z_MSC_GDPS_DownwardLongwaveRadiationFlux-Accum_Sfc_LatLon0.15_PT225H.grib2 2026-04-22 04:47 732K
20260422T00Z_MSC_GDPS_DownwardShortwaveRadiationFlux-Accum_Sfc_LatLon0.15_PT225H.grib2 2026-04-22 04:47 923K
20260422T00Z_MSC_GDPS_FreezingRain-Accum_Sfc_LatLon0.15_PT225H.grib2 2026-04-22 04:47 550K
20260422T00Z_MSC_GDPS_GeopotentialHeight_IsbL-0001_LatLon0.15_PT225H.grib2 2026-04-22 04:47 381K
20260422T00Z_MSC_GDPS_GeopotentialHeight_IsbL-0005_LatLon0.15_PT225H.grib2 2026-04-22 04:47 488K
20260422T00Z_MSC_GDPS_GeopotentialHeight_IsbL-0500_LatLon0.15_PT225H.grib2 2026-04-22 04:47 534K
20260422T00Z_MSC_GDPS_GeopotentialHeight_IsbL-0700_LatLon0.15_PT225H.grib2 2026-04-22 04:47 690K
20260422T00Z_MSC_GDPS_GeopotentialHeight_IsbL-0850_LatLon0.15_PT225H.grib2 2026-04-22 04:47 718K
20260422T00Z_MSC_GDPS_GeopotentialHeight_IsbL-0925_LatLon0.15_PT225H.grib2 2026-04-22 04:47 738K
20260422T00Z_MSC_GDPS_GeopotentialHeight_IsbL-1000_LatLon0.15_PT225H.grib2 2026-04-22 04:47 795K
20260422T00Z_MSC_GDPS_IcePellets-Accum_Sfc_LatLon0.15_PT225H.grib2 2026-04-22 04:47 206K
20260422T00Z_MSC_GDPS_LatentHeatNetFlux_Sfc_LatLon0.15_PT225H.grib2 2026-04-22 04:47 561K
20260422T00Z_MSC_GDPS_NetLongwaveRadiationFlux-Accum_Sfc_LatLon0.15_PT225H.grib2 2026-04-22 04:47 919K
20260422T00Z_MSC_GDPS_NetShortwaveRadiationFlux-Accum_Sfc_LatLon0.15_PT225H.grib2 2026-04-22 04:47 902K
20260422T00Z_MSC_GDPS_O3MixingRatio_LatLon0.15_PT225H.grib2 2026-04-22 05:00 1.9M
20260422T00Z_MSC_GDPS_O3_EAtm_LatLon0.15_PT225H.grib2 2026-04-22 05:00 2.4M
20260422T00Z_MSC_GDPS_PlanetaryBoundaryLayerHeight_Sfc_LatLon0.15_PT225H.grib2 2026-04-22 04:47 2.5M
20260422T00Z_MSC_GDPS_Precip-Accum_Sfc_LatLon0.15_PT225H.grib2 2026-04-22 04:47 5.1M
20260422T00Z_MSC_GDPS_PrecipRate_Sfc_LatLon0.15_PT225H.grib2 2026-04-22 04:47 3.0M
20260422T00Z_MSC_GDPS_Pressure_MSL_LatLon0.15_PT225H.grib2 2026-04-22 04:47 832K
20260422T00Z_MSC_GDPS_Pressure_Sfc_LatLon0.15_PT225H.grib2 2026-04-22 04:47 1.1M
20260422T00Z_MSC_GDPS_RadiativeTemp_Sfc_LatLon0.15_PT225H.grib2 2026-04-22 04:47 501K
20260422T00Z_MSC_GDPS_Rain-Accum_Sfc_LatLon0.15_PT225H.grib2 2026-04-22 04:47 4.3M
20260422T00Z_MSC_GDPS_RelativeHumidity_AGL-2m_LatLon0.15_PT225H.grib2 2026-04-22 04:47 1.0M
20260422T00Z_MSC_GDPS_Runoff-Accum_Sfc_LatLon0.15_PT225H.grib2 2026-04-22 04:47 134K
20260422T00Z_MSC_GDPS_SensibleHeatNetFlux_Sfc_LatLon0.15_PT225H.grib2 2026-04-22 04:47 667K
20260422T00Z_MSC_GDPS_Snow-Accum_Sfc_LatLon0.15_PT225H.grib2 2026-04-22 04:47 2.1M
20260422T00Z_MSC_GDPS_SnowDepth_Sfc_LatLon0.15_PT225H.grib2 2026-04-22 04:47 1.8M
20260422T00Z_MSC_GDPS_SoilTemp_DBS-0to10cm_LatLon0.15_PT225H.grib2 2026-04-22 04:47 512K
20260422T00Z_MSC_GDPS_SoilTemp_Sfc_LatLon0.15_PT225H.grib2 2026-04-22 04:47 593K
20260422T00Z_MSC_GDPS_SoilVolumetricWaterContent_DBS-0to10cm_LatLon0.15_PT225H.grib2 2026-04-22 04:47 585K
20260422T00Z_MSC_GDPS_SoilVolumetricWaterContent_DBS-0to1cm_LatLon0.15_PT225H.grib2 2026-04-22 04:47 656K
20260422T00Z_MSC_GDPS_SpecificHumidity_AGL-120m_LatLon0.15_PT225H.grib2 2026-04-22 04:47 1.1M
20260422T00Z_MSC_GDPS_SpecificHumidity_AGL-2m_LatLon0.15_PT225H.grib2 2026-04-22 04:47 1.2M
20260422T00Z_MSC_GDPS_SpecificHumidity_AGL-40m_LatLon0.15_PT225H.grib2 2026-04-22 04:47 1.1M
20260422T00Z_MSC_GDPS_SpecificHumidity_AGL-80m_LatLon0.15_PT225H.grib2 2026-04-22 04:47 1.1M
20260422T00Z_MSC_GDPS_SpecificHumidity_IsbL-0001_LatLon0.15_PT225H.grib2 2026-04-22 04:47 1.1M
20260422T00Z_MSC_GDPS_SpecificHumidity_IsbL-0005_LatLon0.15_PT225H.grib2 2026-04-22 04:47 1.2M
20260422T00Z_MSC_GDPS_SpecificHumidity_IsbL-0500_LatLon0.15_PT225H.grib2 2026-04-22 04:47 1.4M
20260422T00Z_MSC_GDPS_SpecificHumidity_IsbL-0700_LatLon0.15_PT225H.grib2 2026-04-22 04:47 1.6M
20260422T00Z_MSC_GDPS_SpecificHumidity_IsbL-0850_LatLon0.15_PT225H.grib2 2026-04-22 04:47 1.9M
20260422T00Z_MSC_GDPS_SpecificHumidity_IsbL-0925_LatLon0.15_PT225H.grib2 2026-04-22 04:47 1.6M
20260422T00Z_MSC_GDPS_SpecificHumidity_IsbL-1000_LatLon0.15_PT225H.grib2 2026-04-22 04:47 1.5M
20260422T00Z_MSC_GDPS_SpecificHumidity_Sfc_LatLon0.15_PT225H.grib2 2026-04-22 04:47 678K
20260422T00Z_MSC_GDPS_Thickness_IsbL-0850to0700_LatLon0.15_PT225H.grib2 2026-04-22 04:47 472K
20260422T00Z_MSC_GDPS_Thickness_IsbL-1000to0500_LatLon0.15_PT225H.grib2 2026-04-22 04:47 377K
20260422T00Z_MSC_GDPS_Thickness_IsbL-1000to0850_LatLon0.15_PT225H.grib2 2026-04-22 04:47 496K
20260422T00Z_MSC_GDPS_TotalCloudCover_Sfc_LatLon0.15_PT225H.grib2 2026-04-22 04:47 832K
20260422T00Z_MSC_GDPS_UVIndex-ClearSky_Sfc_LatLon0.15_PT225H.grib2 2026-04-22 05:00 1.1M
20260422T00Z_MSC_GDPS_UVIndex_Sfc_LatLon0.15_PT225H.grib2 2026-04-22 05:00 1.5M
20260422T00Z_MSC_GDPS_UpwardLongwaveRadiationFlux_NTAtm_LatLon0.15_PT225H.grib2 2026-04-22 04:47 845K
20260422T00Z_MSC_GDPS_VerticalVelocity_IsbL-0500_LatLon0.15_PT225H.grib2 2026-04-22 04:47 1.0M
20260422T00Z_MSC_GDPS_VerticalVelocity_IsbL-0700_LatLon0.15_PT225H.grib2 2026-04-22 04:47 1.2M
20260422T00Z_MSC_GDPS_VerticalVelocity_IsbL-0850_LatLon0.15_PT225H.grib2 2026-04-22 04:47 1.3M
20260422T00Z_MSC_GDPS_WindDir_AGL-10m_LatLon0.15_PT225H.grib2 2026-04-22 04:47 1.3M
20260422T00Z_MSC_GDPS_WindDir_AGL-120m_LatLon0.15_PT225H.grib2 2026-04-22 04:47 1.3M
20260422T00Z_MSC_GDPS_WindDir_AGL-40m_LatLon0.15_PT225H.grib2 2026-04-22 04:47 1.4M
20260422T00Z_MSC_GDPS_WindDir_AGL-80m_LatLon0.15_PT225H.grib2 2026-04-22 04:47 1.4M
20260422T00Z_MSC_GDPS_WindDir_IsbL-0001_LatLon0.15_PT225H.grib2 2026-04-22 04:47 665K
20260422T00Z_MSC_GDPS_WindDir_IsbL-0005_LatLon0.15_PT225H.grib2 2026-04-22 04:47 780K
20260422T00Z_MSC_GDPS_WindDir_IsbL-0500_LatLon0.15_PT225H.grib2 2026-04-22 04:47 1.3M
20260422T00Z_MSC_GDPS_WindDir_IsbL-0700_LatLon0.15_PT225H.grib2 2026-04-22 04:47 1.6M
20260422T00Z_MSC_GDPS_WindDir_IsbL-0850_LatLon0.15_PT225H.grib2 2026-04-22 04:47 1.9M
20260422T00Z_MSC_GDPS_WindDir_IsbL-0925_LatLon0.15_PT225H.grib2 2026-04-22 04:47 2.0M
20260422T00Z_MSC_GDPS_WindDir_IsbL-1000_LatLon0.15_PT225H.grib2 2026-04-22 04:47 2.0M
20260422T00Z_MSC_GDPS_WindGust-Max_AGL-10m_LatLon0.15_PT225H.grib2 2026-04-22 04:47 2.2M
20260422T00Z_MSC_GDPS_WindGust-Min_AGL-10m_LatLon0.15_PT225H.grib2 2026-04-22 04:47 2.2M
20260422T00Z_MSC_GDPS_WindGust_AGL-10m_LatLon0.15_PT225H.grib2 2026-04-22 04:47 2.2M
20260422T00Z_MSC_GDPS_WindSpeed_AGL-10m_LatLon0.15_PT225H.grib2 2026-04-22 04:47 1.1M
20260422T00Z_MSC_GDPS_WindSpeed_AGL-120m_LatLon0.15_PT225H.grib2 2026-04-22 04:47 1.2M
20260422T00Z_MSC_GDPS_WindSpeed_AGL-40m_LatLon0.15_PT225H.grib2 2026-04-22 04:47 1.2M
20260422T00Z_MSC_GDPS_WindSpeed_AGL-80m_LatLon0.15_PT225H.grib2 2026-04-22 04:47 1.2M
20260422T00Z_MSC_GDPS_WindSpeed_IsbL-0001_LatLon0.15_PT225H.grib2 2026-04-22 04:47 640K
20260422T00Z_MSC_GDPS_WindSpeed_IsbL-0005_LatLon0.15_PT225H.grib2 2026-04-22 04:47 602K
20260422T00Z_MSC_GDPS_WindSpeed_IsbL-0500_LatLon0.15_PT225H.grib2 2026-04-22 04:47 1.1M
20260422T00Z_MSC_GDPS_WindSpeed_IsbL-0700_LatLon0.15_PT225H.grib2 2026-04-22 04:47 1.5M
20260422T00Z_MSC_GDPS_WindSpeed_IsbL-0850_LatLon0.15_PT225H.grib2 2026-04-22 04:47 1.8M
20260422T00Z_MSC_GDPS_WindSpeed_IsbL-0925_LatLon0.15_PT225H.grib2 2026-04-22 04:47 1.9M
20260422T00Z_MSC_GDPS_WindSpeed_IsbL-1000_LatLon0.15_PT225H.grib2 2026-04-22 04:47 1.8M
20260422T00Z_MSC_GDPS_WindU_AGL-10m_LatLon0.15_PT225H.grib2 2026-04-22 04:47 1.3M
20260422T00Z_MSC_GDPS_WindU_AGL-120m_LatLon0.15_PT225H.grib2 2026-04-22 04:47 1.0M
20260422T00Z_MSC_GDPS_WindU_AGL-40m_LatLon0.15_PT225H.grib2 2026-04-22 04:47 969K
20260422T00Z_MSC_GDPS_WindU_AGL-80m_LatLon0.15_PT225H.grib2 2026-04-22 04:47 972K
20260422T00Z_MSC_GDPS_WindU_IsbL-0001_LatLon0.15_PT225H.grib2 2026-04-22 04:47 499K
20260422T00Z_MSC_GDPS_WindU_IsbL-0005_LatLon0.15_PT225H.grib2 2026-04-22 04:47 683K
20260422T00Z_MSC_GDPS_WindU_IsbL-0500_LatLon0.15_PT225H.grib2 2026-04-22 04:47 1.1M
20260422T00Z_MSC_GDPS_WindU_IsbL-0700_LatLon0.15_PT225H.grib2 2026-04-22 04:47 1.2M
20260422T00Z_MSC_GDPS_WindU_IsbL-0850_LatLon0.15_PT225H.grib2 2026-04-22 04:47 1.4M
20260422T00Z_MSC_GDPS_WindU_IsbL-0925_LatLon0.15_PT225H.grib2 2026-04-22 04:47 1.5M
20260422T00Z_MSC_GDPS_WindU_IsbL-1000_LatLon0.15_PT225H.grib2 2026-04-22 04:47 1.4M
20260422T00Z_MSC_GDPS_WindV_AGL-10m_LatLon0.15_PT225H.grib2 2026-04-22 04:47 1.3M
20260422T00Z_MSC_GDPS_WindV_AGL-120m_LatLon0.15_PT225H.grib2 2026-04-22 04:47 1.0M
20260422T00Z_MSC_GDPS_WindV_AGL-40m_LatLon0.15_PT225H.grib2 2026-04-22 04:47 967K
20260422T00Z_MSC_GDPS_WindV_AGL-80m_LatLon0.15_PT225H.grib2 2026-04-22 04:47 1.0M
20260422T00Z_MSC_GDPS_WindV_IsbL-0001_LatLon0.15_PT225H.grib2 2026-04-22 04:47 707K
20260422T00Z_MSC_GDPS_WindV_IsbL-0005_LatLon0.15_PT225H.grib2 2026-04-22 04:47 755K
20260422T00Z_MSC_GDPS_WindV_IsbL-0500_LatLon0.15_PT225H.grib2 2026-04-22 04:47 1.1M
20260422T00Z_MSC_GDPS_WindV_IsbL-0700_LatLon0.15_PT225H.grib2 2026-04-22 04:47 1.2M
20260422T00Z_MSC_GDPS_WindV_IsbL-0850_LatLon0.15_PT225H.grib2 2026-04-22 04:47 1.4M
20260422T00Z_MSC_GDPS_WindV_IsbL-0925_LatLon0.15_PT225H.grib2 2026-04-22 04:47 1.4M
20260422T00Z_MSC_GDPS_WindV_IsbL-1000_LatLon0.15_PT225H.grib2 2026-04-22 04:47 1.4M